Regional Weather Roundup
Issued by NWS

Home | Current Version | Previous Version | Text Only | Print | Product List | Glossary On
Versions: 1 2 3 4 5 6 7 8 9 10 11 12 13 14 15 16 17 18 19 20 21 22 23 24 25 26 27 28 29 30 31 32 33 34 35 36 37 38 39 40 41 42 43 44 45 46 47 48 49 50
000
ASUS43 KDTX 180601
RWRMI
MICHIGAN HOURLY REGIONAL WEATHER ROUNDUP
NATIONAL WEATHER SERVICE DETROIT/PONTIAC MI
100 AM EST THU DEC 18 2014

NOTE: "FAIR" INDICATES FEW OR NO CLOUDS BELOW 12,000 FEET WITH NO
SIGNIFICANT WEATHER AND/OR OBSTRUCTION TO VISIBILITY.

MIZ047>049-052>055-059>063-066>070-074>076-081>083-180700-
SOUTHEAST LOWER MICHIGAN

CITY           SKY/WX    TMP DP  RH WIND       PRES   REMARKS
ADRIAN         CLOUDY    28  19  69 W10       30.21S WCI  19
6HR MIN TEMP:  28; 6HR MAX TEMP:  29;

ALMA           CLOUDY    28  26  91 W7        30.16R WCI  21
ANN ARBOR      CLOUDY    28  19  69 W14       30.17S WCI  17
BAD AXE        CLOUDY    28  26  89 NW7       30.10R WCI  21
6HR MIN TEMP:  27; 6HR MAX TEMP:  29;

CARO           MIX PCPN  29  27  92 W10       30.12R WCI  20
DETROIT CITY   CLOUDY    31  19  61 W10       30.16R WCI  22
6HR MIN TEMP:  29; 6HR MAX TEMP:  32;

DETROIT        CLOUDY    29  19  66 W12       30.18R WCI  19
6HR MIN TEMP:  27; 6HR MAX TEMP:  30; 6HR PCP: TRACE;

FLINT          CLOUDY    30  22  72 W14       30.15R WCI  19
6HR MIN TEMP:  28; 6HR MAX TEMP:  30;

GROSSE ILE     CLOUDY    30  19  64 W10       30.17R WCI  21
HILLSDALE      CLOUDY    28  22  78 W9        30.19R WCI  19
HOWELL         CLOUDY    27  22  81 W13G18    30.16R WCI  17
6HR MIN TEMP:  26; 6HR MAX TEMP:  27;


CITY           SKY/WX    TMP DP  RH WIND       PRES   REMARKS
JACKSON        CLOUDY    28  20  71 W13G18    30.19S WCI  17
6HR MIN TEMP:  26; 6HR MAX TEMP:  28;

LAMBERTVILLE   CLOUDY    32  21  64 W12       30.21S WCI  23
LANSING        CLOUDY    28  22  78 W14       30.19R WCI  17
6HR MIN TEMP:  27; 6HR MAX TEMP:  28;

LAPEER         CLOUDY    28  25  91 W10       30.12R FOG     WCI  18
MASON          CLOUDY    27  21  77 W13G20    30.18S WCI  17
MONROE         CLOUDY    28  21  74 W10       30.18S WCI  19
MT. CLEMENS    CLOUDY    29  22  75 W12       30.13R WCI  20
6HR MIN TEMP:  28; 6HR MAX TEMP:  29;

PONTIAC        CLOUDY    27  20  75 W15G21    30.13R WCI  15
6HR MIN TEMP:  26; 6HR MAX TEMP:  27; 6HR PCP: TRACE;

PORT HOPE        N/A     29  23  78 NW12      30.08R WCI  19
6HR MIN TEMP:  29; 6HR MAX TEMP:  30; 6HR PCP:  0.04;

PORT HURON     CLOUDY    28  23  80 W5        30.13R WCI  23
TRI CITIES     CLOUDY    30  26  85 W13       30.14R WCI  20
6HR MIN TEMP:  28; 6HR MAX TEMP:  30; 6HR PCP: TRACE;

TROY           CLOUDY    31  21  67 W8        30.17R WCI  23
SAGINAW HB     CLOUDY    30  30 100 W10       30.13R WCI  21
$$
MIZ043>046-050>051-056>058-064>065-071>073-077>080-180700-
SOUTHWEST LOWER MICHIGAN

CITY           SKY/WX    TMP DP  RH WIND       PRES   REMARKS
BATTLE CREEK   CLOUDY    29  20  69 W7        30.21S WCI  22
6HR MIN TEMP:  29; 6HR MAX TEMP:  29;

BENTON HARBOR  CLOUDY    28  21  75 NW10      30.25S WCI  19
6HR MIN TEMP:  28; 6HR MAX TEMP:  28;

BIG RAPIDS     CLOUDY    29  28  97 W5        30.15R WCI  24
6HR MIN TEMP:  27; 6HR MAX TEMP:  29;

COLDWATER      CLOUDY    28  21  75 W9        30.21S WCI  19
6HR MIN TEMP:  28; 6HR MAX TEMP:  28;

FREMONT        CLOUDY    29  25  83 W5        30.19R WCI  24
HOLLAND        CLOUDY    32  22  66 W8        30.24R WCI  25
6HR MIN TEMP:  31; 6HR MAX TEMP:  32;

GRAND RAPIDS   CLOUDY    29  22  75 W10       30.21R WCI  20
6HR MIN TEMP:  27; 6HR MAX TEMP:  29; 6HR PCP: TRACE;

IONIA          CLOUDY    29  24  79 W13       30.18R WCI  19
KALAMAZOO      CLOUDY    29  21  72 W6        30.22S WCI  23
6HR MIN TEMP:  28; 6HR MAX TEMP:  29;

LUDINGTON      LGT SNOW  31  28  89 NW3       30.20R
6HR MIN TEMP:  31; 6HR MAX TEMP:  32;

MARSHALL       CLOUDY    27  20  74 W7        30.21R WCI  20
MOUNT PLEASANT CLOUDY    29  27  91 W5        30.14R WCI  24
6HR MIN TEMP:  27; 6HR MAX TEMP:  29;

MUSKEGON       CLOUDY    32  24  72 NW7       30.22R WCI  26
6HR MIN TEMP:  30; 6HR MAX TEMP:  32; 6HR PCP: TRACE;

SOUTH HAVEN    CLOUDY    31  23  71 NW5       30.24S WCI  26
$$
MIZ016>042-180700-
NORTHERN LOWER MICHIGAN

CITY           SKY/WX    TMP DP  RH WIND       PRES   REMARKS
ALPENA         CLOUDY    25  21  85 NW10      30.10S WCI  15
6HR MIN TEMP:  25; 6HR MAX TEMP:  26; 6HR PCP:  0.01;

BEAVER ISLAND  CLOUDY    25  22  89 N8        30.17R WCI  17
6HR MIN TEMP:  25; 6HR MAX TEMP:  27;

BELLAIRE       CLOUDY    28  25  86 N5        30.14S WCI  23
6HR MIN TEMP:  28; 6HR MAX TEMP:  29;

CADILLAC       CLOUDY    27  26  94 W7        30.11R FOG     WCI  20
FRANKFORT      FLURRIES  31  28  90 NW5       30.17R WCI  26
GAYLORD        CLOUDY    23  22  96 CALM      30.08S
6HR MIN TEMP:  23; 6HR MAX TEMP:  25; 6HR PCP: TRACE;

GRAYLING       CLOUDY    28  27  94 NW7       30.10S WCI  21
6HR MIN TEMP:  26; 6HR MAX TEMP:  28;

HARBOR SPRINGS CLOUDY    25  21  85 N5        30.14R WCI  19
HOUGHTON LAKE  CLOUDY    26  24  92 NW9       30.09S WCI  17
6HR MIN TEMP:  26; 6HR MAX TEMP:  27; 6HR PCP: TRACE;

MANISTEE       CLOUDY    30  27  86 N7        30.18R WCI  23
OSCODA         CLOUDY    26  23  87 NW8       30.10R WCI  18
PELLSTON       CLOUDY    24  19  81 N8        30.14S WCI  15
6HR MIN TEMP:  24; 6HR MAX TEMP:  26; 6HR PCP: TRACE;

ROGERS CITY    CLOUDY    25  22  89 N8        30.12S WCI  16
TRAVERSE CITY  CLOUDY    31  26  82 N9        30.14R WCI  23
6HR MIN TEMP:  30; 6HR MAX TEMP:  31; 6HR PCP: TRACE;

$$
MIZ007>008-015-180700-
EASTERN UPPER MICHIGAN

CITY           SKY/WX    TMP DP  RH WIND       PRES   REMARKS
KINROSS        PTCLDY    19  18  93 N7        30.14R WCI  10
6HR MIN TEMP:  19; 6HR MAX TEMP:  21;

MACKINAC ISLAN CLOUDY    24  22  93 N9        30.14R WCI  14
6HR MIN TEMP:  23; 6HR MAX TEMP:  26;

NEWBERRY       CLOUDY    22  20  95 N12       30.16S WCI  10
6HR MIN TEMP:  22; 6HR MAX TEMP:  24;

S. S. MARIE    PTCLDY    19  13  77 NW7       30.16R WCI  10
6HR MIN TEMP:  19; 6HR MAX TEMP:  22; 6HR PCP: TRACE;

$$
MIZ004>006-011>014-085-180700-
CENTRAL UPPER MICHIGAN

CITY           SKY/WX    TMP DP  RH WIND       PRES   REMARKS
MANISTIQUE     CLOUDY    25  22  89 N14G23    30.18R WCI  13
ESCANABA       CLOUDY    27  19  74 N9        30.20S WCI  17
6HR MIN TEMP:  27; 6HR MAX TEMP:  28;

MENOMINEE      CLOUDY    27  21  80 N3        30.23R
6HR MIN TEMP:  27; 6HR MAX TEMP:  27;

SAWYER-GWINN   CLOUDY    25  21  85 N14       30.20R WCI  13
6HR MIN TEMP:  25; 6HR MAX TEMP:  26;

$$
MIZ001>003-009>011-084-180700-
WESTERN UPPER MICHIGAN

CITY           SKY/WX    TMP DP  RH WIND       PRES   REMARKS
IRON MOUNTAIN  CLOUDY    25  19  78 N9        30.21R WCI  15
6HR MIN TEMP:  24; 6HR MAX TEMP:  25; 6HR PCP: TRACE;

HOUGHTON       CLEAR     18  14  84 N5        30.26R WCI  11
6HR MIN TEMP:  17; 6HR MAX TEMP:  24;

COPPER HARBOR    N/A     27  19  72 E13       30.29S WCI  16
6HR MIN TEMP:  26; 6HR MAX TEMP:  28;

IRONWOOD       CLOUDY    21  19  93 NE3       30.24S
6HR MIN TEMP:  21; 6HR MAX TEMP:  23;

$$

ABBREVIATIONS USED IN REMARKS
   TC - TEMPERATURE IN CELSIUS
  WCI - WIND CHILL INDEX
   HX - HEAT INDEX
  VSB - VISIBILITY



USA.gov is the U.S. government's official web portal to all federal, state and local government web resources and services.